sat.trackr.live / text

‹ back to catalog

STARLINK-31296

NORAD 58879 · 2024-020D

PAYLOAD ACTIVE UNKNOWN

§ Identity

Operator
Country
US
Launch date
2024-01-29
Launch site
AFWTR
Launch vehicle
Mass (kg)
RCS (m²)

Purposes: comms

External: N2YO · Heavens-Above · Gunter

§ Orbital elements

Epoch: 2026-05-24T15:35:02.295168Z

Period
94.11 min
Inclination
53.1606°
Eccentricity
0.0001083
Mean motion
15.30191851 rev/d
Perigee alt
474.5 km
Apogee alt
476.0 km
Semi-major
6,853.4 km
B*
2.6957e-5
RAAN
303.8219°
Arg perigee
77.2617°
Mean anomaly
282.8505°
Rev number
13,006

§ Raw data

STARLINK-312961 58879U 24020D   26144.64933212  .00000439  00000+0  26957-4 0  99902 58879  53.1606 303.8219 0001083  77.2617 282.8505 15.30191851130062

JSON: /api/v1/satellites/58879 · /tle

For live sub-satellite position, see the globe view (requires WebGL).

§ Visibility from observer

Set your observer location to see the next 7 days of passes ≥ 10°. The values pass through the URL so the page stays shareable.

No JS? Fill the form by hand. The geolocation button needs JavaScript.